Home   Weather   Leon   Past weeks

Flag for Mexico Past Weather in Leon, Guanajuato, Mexico — Yesterday and Last 2 Weeks

Now
46 °F

Passing clouds.


Feels Like: 46 °F
Forecast: 46 / 74 °F
Wind: No wind

Location: Del Bajio / Leon

Current Time: Jan 17, 2017 at 5:22:52 am

Latest Report: Jan 17, 2017 at 4:50 am


Visibility: 8 mi

Pressure: 30.23 "Hg (24.27 "Hg at 1808m altitude)

Humidity: 66%

Dew Point: 36 °F

Location of LeonLocation

Past Weather in Leon — Graph

°F

Leon Temperature Yesterday

Maximum temperature yesterday: 75 °F (at 3:41 pm)
Minimum temperature yesterday: 41 °F (at 6:42 am)
Average temperature yesterday: 60 °F

High & Low Weather Summary for the Past Weeks

 TemperatureHumidityPressure
High82 °F (Jan 5, 3:46 pm)88% (Jan 14, 4:45 am)30.61 "Hg (Jan 14, 4:45 am)
Low34 °F (Jan 10, 7:43 am)6% (Jan 11, 3:44 pm)29.28 "Hg (Jan 14, 5:51 am)
Average60 °F41%30.21 "Hg
* Reported Jan 2 3:44 am — Jan 17 3:46 am, Leon, Weather by CustomWeather, © 2017

Note: Actual official high and low records may vary slightly from our data, if they occured in-between our weather recording intervals... More about our weather records

Advertising

Leon Weather History for the Previous 24 Hours

Scroll right to see more
 ConditionsComfort  
Time TempWeatherWind HumidityBarometerVisibility
3:46 am
Tue, Jan 17
48 °FClear.7 mph66%30.23 "Hg8 mi
11:50 pm
Mon, Jan 16
52 °FClear.6 mph54%29.93 "Hg8 mi
10:44 pm55 °FClear.No wind47%30.25 "Hg8 mi
9:47 pm61 °FClear.7 mph42%30.24 "Hg8 mi
8:43 pm61 °FClear.5 mph42%29.94 "Hg8 mi
7:45 pm64 °FClear.5 mph34%30.19 "Hg8 mi
6:44 pm68 °FClear.6 mph28%30.17 "Hg8 mi
5:43 pm73 °FScattered clouds.5 mph23%29.83 "Hg10 mi
4:44 pm75 °FSunny.No wind22%30.12 "Hg10 mi
3:41 pm75 °FSunny.No wind22%30.15 "Hg10 mi
2:50 pm73 °FSunny.9 mph23%29.83 "Hg10 mi
1:40 pm72 °FSunny.6 mph25%30.21 "Hg8 mi
12:44 pm70 °FSunny.13 mph29%30.25 "Hg8 mi
11:41 am68 °FSunny.7 mph30%30.02 "Hg8 mi
10:42 am64 °FSunny.7 mph32%30.31 "Hg8 mi
9:40 am61 °FPassing clouds.No wind36%30.31 "Hg8 mi
8:41 am52 °FScattered clouds.No wind50%30.08 "Hg9 mi
7:40 am41 °FScattered clouds.3 mph66%30.27 "Hg8 mi
6:42 am41 °FPassing clouds.3 mph70%30.25 "Hg8 mi
5:46 am45 °FPassing clouds.No wind61%29.98 "Hg8 mi
Weather by CustomWeather, © 2017

See weather overviewHow to use our weather pages